Regional Weather Roundup
Issued by NWS Kansas City/Pleasant Hill, MO

Home | Current Version | Previous Version | Text Only | Print | Product List | Glossary On
Versions: 1 2 3 4 5 6 7 8 9 10 11 12 13 14 15 16 17 18 19 20 21 22 23 24 25 26 27 28 29 30 31 32 33 34 35 36 37 38 39 40 41 42 43 44 45 46 47 48 49 50
876
ASUS43 KEAX 261010
RWREAX

WEATHER ROUNDUP FOR EASTERN KANSAS AND NORTHWEST MISSOURI
NATIONAL WEATHER SERVICE KANSAS CITY/PLEASANT HILL MO
500 AM CDT WED JUL 26 2017

KSZ040-057-103>105-MOZ028-029-037-043-261100-
...KANSAS CITY METROPOLITAN AREA...

CITY           SKY/WX    TMP DP  RH WIND       PRES   REMARKS
K.C. INTL      MOCLDY    79  73  82 S12       29.99S
K.C. DOWNTOWN  CLOUDY    82  74  76 S9        29.98S
LEES SUMMIT    PTCLDY    80  73  79 S14       30.00F
OLATHE - IXD   CLOUDY    78  73  84 S9        30.01S
OLATHE - OJC   CLOUDY    77  74  90 S9        30.00F
LAWRENCE       PTCLDY    79  74  84 SE8       29.98F

$$

MOZ001>008-011>017-020>025-030>033-038>040-044>046-053-054-261100-
...NORTHERN AND CENTRAL MISSOURI...

CITY           SKY/WX    TMP DP  RH WIND       PRES   REMARKS
ST. JOSEPH     CLOUDY    78  75  90 S8        29.98R
MOSBY          PTSUNNY   75  72  88 SE3       29.99F
WHITEMAN AFB   NOT AVBL
CLINTON        NOT AVBL
SEDALIA        PTCLDY    73  71  93 S7        30.03F
WARSAW         NOT AVBL
CHILLICOTHE      N/A     75  72  90 S3        30.01F
KIRKSVILLE     PTCLDY    72  70  93 SE7       30.04S

$$

MOZ041-047>049-056>058-063>065-088>090-097-261100-
...EASTERN AND SOUTHERN MISSOURI...

CITY           SKY/WX    TMP DP  RH WIND       PRES   REMARKS
ST. LOUIS INTL PTCLDY    79  70  74 SE9       30.05F
SPIRIT OF STL  CLEAR     76  73  91 CALM      30.03F
COLUMBIA       CLEAR     73  71  93 SE6       30.04S
JEFFERSON CITY PTCLDY    73  73 100 SE5       30.03S
ROLLA          PTCLDY    73  69  87 SW8       30.07F
OSAGE BEACH    PTCLDY    74  69  85 CALM      30.06S
SPRINGFIELD    CLEAR     74  71  91 S5        30.08S
BRANSON        CLEAR     75  72  88 CALM      30.10F
JOPLIN         PTCLDY    79  74  84 S8        30.05S
WEST PLAINS    CLEAR     76  72  87 W3        30.11S

$$

IAZ060-094-KSZ022-034>040-054-083-096-NEZ052-066-093-261100-
...KANSAS...SOUTHEAST NEBRASKA AND IOWA...

CITY           SKY/WX    TMP DP  RH WIND       PRES   REMARKS
TOPEKA         PTCLDY    80  74  81 S5        29.97S
MANHATTAN      CLOUDY    83  72  69 S15G24    29.96R
EMPORIA        CLOUDY    77  72  84 S15G23    29.98F
CHANUTE        CLOUDY    78  73  84 S8        30.02F
WICHITA        PTCLDY    80  72  76 S13       29.97F
OMAHA          CLOUDY    81  73  76 SE14      29.93S
LINCOLN        CLOUDY    82  71  69 W23G35    29.99R THUNDER
FALLS CITY     CLOUDY    80  71  74 S12       29.95S
LAMONI         MOCLDY    74  69  85 S7        30.01F
DES MOINES     CLOUDY    76  69  79 SE9       29.97F

$$





USA.gov is the U.S. government's official web portal to all federal, state and local government web resources and services.